View from above orbital plane
|
View from above satellite
|
Ground track
|
The orbit data is extracted from the following two-line orbital elements,
1 39120U 13011A 21015.81848337 .00000117 00000-0 00000-0 0 9991
2 39120 1.9528 352.9037 0001883 300.8179 136.9976 1.00272121 28703
Epoch (UTC): | 15 January 2021 19:38:36 |
Eccentricity: | 0.0001883 |
inclination: | 1.9528° |
perigee height: | 35778 km |
apogee height: | 35794 km |
right ascension of ascending node: | 352.9037° |
argument of perigee: | 300.8179° |
revolutions per day: | 1.00272121 |
mean anomaly at epoch: | 136.9976° |
orbit number at epoch: | 2870 |
The dashed part of the orbit path shows where the satellite is in the earth's shadow,
|
|